RYR6QX LIME-LGKR

Flight info

Callsign RYR6QX
Flight time N/A
Altitude 18000
Route LEGLO L615 OSKOR/N0365F190 L615 NEVNI/N0448F350 DCT LABIN DCT SPL DCT SIPAL DCT RODON DCT LIMJA N732 PITAS
Aircraft B738/M-SDE2E3FGHIRWXY/LB1

Departure

Time 2026-04-30 10:35
Airport Il Caravaggio International Airport (LIME)

Arrival

Time N/A
Airport Corfu Ioannis Kapodistrias International Airport (LGKR)
Time Latitude Longitude Altitude Speed Heading
2026-04-30 09:51 45.66638 9.69991 785 ft 0 kts 195°
2026-04-30 10:28 45.66661 9.70000 786 ft 4 kts 198°
2026-04-30 10:28 45.66686 9.70013 786 ft 4 kts 202°
2026-04-30 10:29 45.66710 9.70030 786 ft 4 kts 214°
2026-04-30 10:29 45.66728 9.70055 786 ft 4 kts 255°
2026-04-30 10:29 45.66729 9.70069 786 ft 1 kts 285°
2026-04-30 10:31 45.66730 9.70061 786 ft 3 kts 285°
2026-04-30 10:31 45.66738 9.70009 786 ft 8 kts 281°
2026-04-30 10:32 45.66750 9.69899 786 ft 13 kts 288°
2026-04-30 10:32 45.66786 9.69750 786 ft 18 kts 287°
2026-04-30 10:32 45.66822 9.69550 786 ft 22 kts 286°
2026-04-30 10:32 45.66865 9.69339 786 ft 22 kts 284°
2026-04-30 10:33 45.66900 9.69132 786 ft 21 kts 282°
2026-04-30 10:33 45.66921 9.68927 786 ft 20 kts 283°
2026-04-30 10:33 45.67014 9.68891 786 ft 15 kts 16°
2026-04-30 10:33 45.67101 9.68951 786 ft 13 kts 74°
2026-04-30 10:34 45.67093 9.69028 786 ft 0 kts 103°
2026-04-30 10:34 45.67087 9.69062 786 ft 22 kts 105°
2026-04-30 10:34 45.66976 9.69668 786 ft 99 kts 105°
2026-04-30 10:34 45.66741 9.70923 808 ft 158 kts 105°
2026-04-30 10:35 45.66444 9.72558 1318 ft 179 kts 104°
2026-04-30 10:35 45.66065 9.74344 2144 ft 190 kts 112°
2026-04-30 10:35 45.65443 9.75982 3107 ft 192 kts 121°
2026-04-30 10:35 45.64701 9.77713 3464 ft 217 kts 121°
2026-04-30 10:36 45.63921 9.79619 3975 ft 229 kts 120°
2026-04-30 10:36 45.63129 9.81628 4623 ft 237 kts 119°
2026-04-30 10:36 45.62296 9.83653 5528 ft 237 kts 128°
2026-04-30 10:36 45.60983 9.85086 6282 ft 246 kts 158°
2026-04-30 10:37 45.59281 9.85545 7016 ft 253 kts 176°
2026-04-30 10:37 45.57514 9.85607 7828 ft 255 kts 180°
2026-04-30 10:37 45.55756 9.85220 8579 ft 260 kts 205°
2026-04-30 10:37 45.54255 9.83772 9406 ft 262 kts 220°
2026-04-30 10:38 45.52848 9.82073 10186 ft 267 kts 221°
2026-04-30 10:38 45.51418 9.80355 10933 ft 271 kts 221°
2026-04-30 10:38 45.49962 9.78631 11674 ft 274 kts 220°
2026-04-30 10:38 45.48631 9.76690 12353 ft 277 kts 243°
2026-04-30 10:39 45.48171 9.74079 12980 ft 274 kts 276°
2026-04-30 10:39 45.48732 9.71534 13751 ft 271 kts 303°
2026-04-30 10:39 45.50014 9.69569 14384 ft 274 kts 327°
2026-04-30 10:39 45.51769 9.68540 15034 ft 277 kts 351°
2026-04-30 10:40 45.53700 9.68700 15669 ft 282 kts 15°
2026-04-30 10:40 45.55499 9.69771 16434 ft 287 kts 25°
2026-04-30 10:40 45.57281 9.71132 17068 ft 292 kts 27°
2026-04-30 10:40 45.59083 9.72517 17747 ft 295 kts 26°
2026-04-30 10:41 45.60913 9.73889 18403 ft 299 kts 25°
2026-04-30 10:41 45.62764 9.75287 18987 ft 303 kts 31°
2026-04-30 10:41 45.64284 9.77395 19531 ft 311 kts 57°
2026-04-30 10:41 45.65034 9.80355 19800 ft 330 kts 83°
2026-04-30 10:42 45.65104 9.83730 19962 ft 349 kts 89°
2026-04-30 10:42 45.65068 9.87293 20096 ft 368 kts 90°
2026-04-30 10:42 45.65019 9.91039 20214 ft 386 kts 90°
2026-04-30 10:42 45.64979 9.94941 20519 ft 397 kts 89°
2026-04-30 10:43 45.64952 9.98857 21063 ft 401 kts 89°
2026-04-30 10:43 45.64934 10.02847 21655 ft 403 kts 89°
2026-04-30 10:43 45.64919 10.06870 22222 ft 406 kts 89°
2026-04-30 10:43 45.64903 10.10934 22738 ft 410 kts 89°
2026-04-30 10:44 45.64890 10.15031 23240 ft 414 kts 89°
2026-04-30 10:44 45.64880 10.19167 23744 ft 418 kts 89°
2026-04-30 10:44 45.64870 10.23331 24183 ft 421 kts 89°
2026-04-30 10:44 45.64859 10.27531 24618 ft 424 kts 88°
2026-04-30 10:45 45.64845 10.31754 25049 ft 427 kts 89°
2026-04-30 10:45 45.64828 10.36012 25466 ft 430 kts 89°
2026-04-30 10:45 45.64771 10.40299 25867 ft 434 kts 92°
2026-04-30 10:45 45.64325 10.44594 26245 ft 439 kts 103°
2026-04-30 10:46 45.63448 10.48648 26660 ft 441 kts 108°
2026-04-30 10:46 45.62445 10.52818 27044 ft 444 kts 108°
2026-04-30 10:46 45.61425 10.56993 27415 ft 447 kts 108°
2026-04-30 10:46 45.60395 10.61220 27788 ft 450 kts 108°
2026-04-30 10:47 45.59370 10.65464 28154 ft 453 kts 108°
2026-04-30 10:47 45.58345 10.69737 28514 ft 456 kts 108°
2026-04-30 10:47 45.57321 10.74035 28869 ft 459 kts 108°
2026-04-30 10:47 45.56292 10.78362 29221 ft 462 kts 108°
2026-04-30 10:48 45.55258 10.82710 29573 ft 464 kts 108°
2026-04-30 10:48 45.54218 10.87081 29905 ft 467 kts 108°
2026-04-30 10:48 45.53521 10.90003 30098 ft 469 kts 108°
2026-04-30 10:48 45.52111 10.95907 30516 ft 472 kts 108°
2026-04-30 10:49 45.51406 10.98848 30702 ft 473 kts 108°
2026-04-30 10:49 45.49989 11.04754 31080 ft 476 kts 108°
2026-04-30 10:49 45.48916 11.09214 31386 ft 476 kts 108°
2026-04-30 10:49 45.47840 11.13676 31751 ft 475 kts 108°
2026-04-30 10:50 45.47126 11.16632 32020 ft 474 kts 109°
2026-04-30 10:50 45.46054 11.21066 32371 ft 474 kts 109°
2026-04-30 10:50 45.44978 11.25503 32684 ft 474 kts 109°
2026-04-30 10:50 45.43900 11.29944 32997 ft 474 kts 109°
2026-04-30 10:51 45.42820 11.34378 33331 ft 474 kts 109°
2026-04-30 10:51 45.41741 11.38805 33670 ft 473 kts 109°
2026-04-30 10:51 45.40657 11.43242 33986 ft 473 kts 109°
2026-04-30 10:51 45.39572 11.47674 34294 ft 473 kts 109°
2026-04-30 10:52 45.38486 11.52102 34571 ft 473 kts 109°
2026-04-30 10:52 45.37400 11.56525 34792 ft 474 kts 109°
2026-04-30 10:52 45.36308 11.60960 35020 ft 475 kts 109°
2026-04-30 10:52 45.35213 11.65395 35279 ft 475 kts 109°
2026-04-30 10:53 45.33024 11.74245 35321 ft 480 kts 109°
2026-04-30 10:53 45.30807 11.83171 35310 ft 476 kts 109°
2026-04-30 10:54 45.28604 11.92003 35324 ft 474 kts 109°
2026-04-30 10:54 45.26400 12.00809 35319 ft 473 kts 109°
2026-04-30 10:55 45.24189 12.09610 35311 ft 473 kts 110°
2026-04-30 10:55 45.21975 12.18385 35313 ft 473 kts 110°
2026-04-30 10:56 45.19748 12.27181 35310 ft 474 kts 110°
2026-04-30 10:56 45.17510 12.35987 35314 ft 475 kts 110°
2026-04-30 10:57 45.15274 12.44749 35305 ft 476 kts 110°
2026-04-30 10:57 45.13014 12.53573 35312 ft 477 kts 110°
2026-04-30 10:58 45.10744 12.62407 35307 ft 478 kts 110°
2026-04-30 10:58 45.08462 12.71247 35314 ft 479 kts 110°
2026-04-30 10:59 45.06171 12.80094 35312 ft 479 kts 110°
2026-04-30 10:59 45.03869 12.88948 35314 ft 480 kts 110°
2026-04-30 11:00 45.01559 12.97807 35307 ft 480 kts 111°
2026-04-30 11:00 44.99235 13.06676 35304 ft 480 kts 111°
2026-04-30 11:01 44.96178 13.15002 35312 ft 477 kts 123°
2026-04-30 11:01 44.92642 13.22871 35299 ft 477 kts 124°
2026-04-30 11:02 44.89076 13.30792 35287 ft 478 kts 124°
2026-04-30 11:02 44.85543 13.38731 35296 ft 478 kts 123°
2026-04-30 11:03 44.82020 13.46681 35299 ft 478 kts 123°
2026-04-30 11:04 44.76727 13.58596 35281 ft 478 kts 123°
2026-04-30 11:04 44.73211 13.66480 35280 ft 479 kts 124°
2026-04-30 11:05 44.69666 13.74403 35275 ft 479 kts 124°
2026-04-30 11:05 44.66115 13.82318 35274 ft 479 kts 124°
2026-04-30 11:06 44.62558 13.90225 35274 ft 479 kts 124°
2026-04-30 11:06 44.58985 13.98145 35276 ft 479 kts 124°
2026-04-30 11:07 44.55440 14.05983 35270 ft 479 kts 124°
2026-04-30 11:07 44.51864 14.13866 35270 ft 479 kts 124°
2026-04-30 11:08 44.48281 14.21744 35266 ft 479 kts 124°
2026-04-30 11:08 44.44694 14.29608 35269 ft 479 kts 124°
2026-04-30 11:09 44.41097 14.37474 35264 ft 479 kts 124°
2026-04-30 11:09 44.37497 14.45325 35263 ft 480 kts 124°
2026-04-30 11:10 44.33889 14.53171 35262 ft 480 kts 124°
2026-04-30 11:10 44.30275 14.61010 35259 ft 480 kts 124°
2026-04-30 11:11 44.26653 14.68843 35254 ft 480 kts 124°
2026-04-30 11:11 44.23030 14.76659 35256 ft 480 kts 124°
2026-04-30 11:12 44.19396 14.84476 35252 ft 480 kts 124°
2026-04-30 11:12 44.15752 14.92294 35252 ft 481 kts 124°
2026-04-30 11:13 44.12126 15.00052 35232 ft 481 kts 124°
2026-04-30 11:13 44.08466 15.07863 35239 ft 481 kts 125°
2026-04-30 11:14 44.04803 15.15660 35238 ft 481 kts 125°
2026-04-30 11:14 44.01134 15.23448 35238 ft 481 kts 125°
2026-04-30 11:15 43.97451 15.31244 35247 ft 482 kts 125°
2026-04-30 11:15 43.93766 15.39024 35237 ft 482 kts 125°
2026-04-30 11:16 43.90099 15.46744 35225 ft 482 kts 125°
2026-04-30 11:16 43.86402 15.54509 35221 ft 482 kts 125°
2026-04-30 11:17 43.82698 15.62268 35207 ft 483 kts 125°
2026-04-30 11:17 43.78981 15.70031 35205 ft 483 kts 125°
2026-04-30 11:18 43.75261 15.77781 35188 ft 483 kts 125°
2026-04-30 11:18 43.69668 15.89396 35186 ft 483 kts 125°
2026-04-30 11:19 43.65954 15.97084 35180 ft 484 kts 125°
2026-04-30 11:19 43.62210 16.04813 35179 ft 484 kts 126°
2026-04-30 11:20 43.58454 16.12546 35185 ft 485 kts 126°
2026-04-30 11:20 43.54690 16.20278 35187 ft 484 kts 126°
2026-04-30 11:21 43.50930 16.27982 35188 ft 484 kts 126°
2026-04-30 11:21 43.47239 16.35673 35179 ft 484 kts 124°
2026-04-30 11:22 43.43630 16.43509 35182 ft 484 kts 124°
2026-04-30 11:22 43.40027 16.51333 35167 ft 484 kts 124°
2026-04-30 11:23 43.36407 16.59124 35170 ft 483 kts 124°
2026-04-30 11:24 43.30945 16.70804 35145 ft 484 kts 124°
2026-04-30 11:24 43.27315 16.78541 35147 ft 485 kts 124°
2026-04-30 11:25 43.21838 16.90181 35146 ft 484 kts 124°
2026-04-30 11:26 43.14491 17.05679 35143 ft 484 kts 128°
2026-04-30 11:26 43.09938 17.12379 35148 ft 479 kts 141°
2026-04-30 11:27 43.04956 17.18458 35141 ft 480 kts 142°
2026-04-30 11:27 43.00013 17.24502 35140 ft 481 kts 141°
2026-04-30 11:28 42.92562 17.33726 35134 ft 482 kts 141°
2026-04-30 11:29 42.87596 17.39887 35119 ft 483 kts 141°
2026-04-30 11:29 42.80123 17.49129 35126 ft 483 kts 141°
2026-04-30 11:30 42.72672 17.58307 35119 ft 483 kts 141°
2026-04-30 11:31 42.67681 17.64436 35119 ft 483 kts 141°
2026-04-30 11:31 42.62680 17.70564 35121 ft 483 kts 142°
2026-04-30 11:32 42.57743 17.76601 35112 ft 483 kts 142°
2026-04-30 11:32 42.52731 17.82714 35110 ft 484 kts 142°
2026-04-30 11:33 42.45246 17.91820 35113 ft 484 kts 142°
2026-04-30 11:33 42.40229 17.97906 35105 ft 484 kts 142°
2026-04-30 11:34 42.35203 18.03990 35110 ft 485 kts 142°
2026-04-30 11:34 42.30175 18.10062 35104 ft 485 kts 142°
2026-04-30 11:35 42.25137 18.16134 35107 ft 485 kts 142°
2026-04-30 11:35 42.20125 18.22159 35096 ft 485 kts 142°
2026-04-30 11:36 42.15077 18.28215 35115 ft 486 kts 142°
2026-04-30 11:36 42.10020 18.34266 35102 ft 487 kts 142°
2026-04-30 11:37 42.04953 18.40319 35092 ft 487 kts 142°
2026-04-30 11:37 42.00746 18.45337 35162 ft 487 kts 143°
2026-04-30 11:38 41.95639 18.51407 35112 ft 492 kts 143°
2026-04-30 11:38 41.90508 18.57496 35102 ft 492 kts 143°
2026-04-30 11:39 41.85366 18.63587 35104 ft 492 kts 143°
2026-04-30 11:39 41.80234 18.69652 35099 ft 492 kts 143°
2026-04-30 11:40 41.75129 18.75671 35098 ft 491 kts 143°
2026-04-30 11:40 41.70005 18.81699 35092 ft 489 kts 143°
2026-04-30 11:41 41.64893 18.87700 35096 ft 488 kts 143°
2026-04-30 11:41 41.59794 18.93673 35082 ft 486 kts 143°
2026-04-30 11:42 41.54713 18.99612 35084 ft 485 kts 143°
2026-04-30 11:42 41.49628 19.05543 35089 ft 483 kts 143°
2026-04-30 11:43 41.44277 19.10684 35080 ft 472 kts 159°
2026-04-30 11:43 41.38248 19.13836 35083 ft 463 kts 167°
2026-04-30 11:44 41.32158 19.16705 35075 ft 465 kts 167°
2026-04-30 11:44 41.26065 19.19630 35075 ft 466 kts 166°
2026-04-30 11:45 41.19957 19.22596 35073 ft 468 kts 166°
2026-04-30 11:45 41.13832 19.25574 35067 ft 469 kts 166°
2026-04-30 11:46 41.07701 19.28548 35064 ft 470 kts 166°
2026-04-30 11:46 41.01548 19.31525 35057 ft 470 kts 166°
2026-04-30 11:47 40.95388 19.34497 35085 ft 475 kts 166°
2026-04-30 11:47 40.89209 19.37477 35033 ft 467 kts 166°
2026-04-30 11:48 40.83188 19.40376 35043 ft 462 kts 166°
2026-04-30 11:48 40.77165 19.43264 35044 ft 460 kts 166°
2026-04-30 11:49 40.71084 19.46169 34402 ft 471 kts 166°
2026-04-30 11:49 40.68008 19.47640 33964 ft 467 kts 165°
2026-04-30 11:49 40.64974 19.49095 33574 ft 461 kts 165°
2026-04-30 11:50 40.61977 19.50530 33101 ft 456 kts 165°
2026-04-30 11:50 40.59005 19.51947 32715 ft 454 kts 166°
2026-04-30 11:50 40.56006 19.53370 32364 ft 464 kts 165°
2026-04-30 11:50 40.52933 19.54822 32071 ft 467 kts 165°
2026-04-30 11:51 40.49868 19.56275 31782 ft 470 kts 165°
2026-04-30 11:51 40.46839 19.57710 31522 ft 469 kts 165°
2026-04-30 11:51 40.43773 19.59163 31260 ft 467 kts 165°
2026-04-30 11:51 40.40726 19.60607 30997 ft 464 kts 165°
2026-04-30 11:52 40.37683 19.62047 30737 ft 463 kts 165°
2026-04-30 11:52 40.34645 19.63482 30474 ft 461 kts 165°
2026-04-30 11:52 40.31636 19.64901 29677 ft 463 kts 165°
2026-04-30 11:52 40.28624 19.66320 29426 ft 453 kts 165°
2026-04-30 11:53 40.25677 19.67711 28859 ft 449 kts 165°
2026-04-30 11:53 40.22716 19.69102 28220 ft 448 kts 165°
2026-04-30 11:53 40.19829 19.70462 28076 ft 435 kts 165°
2026-04-30 11:53 40.17025 19.71780 27660 ft 433 kts 165°
2026-04-30 11:54 40.14141 19.73128 27190 ft 436 kts 165°
2026-04-30 11:54 40.11270 19.74469 26728 ft 437 kts 165°
2026-04-30 11:54 40.08420 19.75802 26266 ft 434 kts 165°
2026-04-30 11:54 40.05623 19.77112 25825 ft 430 kts 165°
2026-04-30 11:55 40.02820 19.78424 25368 ft 426 kts 165°
2026-04-30 11:55 40.00039 19.79722 24941 ft 423 kts 165°
2026-04-30 11:55 39.97278 19.81011 24509 ft 420 kts 165°
2026-04-30 11:55 39.94534 19.82289 24059 ft 418 kts 165°
2026-04-30 11:56 39.91800 19.83562 23592 ft 416 kts 165°
2026-04-30 11:56 39.89072 19.84817 23046 ft 413 kts 167°
2026-04-30 11:56 39.86287 19.85371 22460 ft 399 kts 190°
2026-04-30 11:56 39.83689 19.84426 21947 ft 380 kts 214°
2026-04-30 11:57 39.81757 19.82231 21437 ft 365 kts 239°
2026-04-30 11:57 39.80821 19.79285 20943 ft 355 kts 264°
2026-04-30 11:57 39.81023 19.76137 20439 ft 351 kts 288°
2026-04-30 11:57 39.81999 19.73240 19989 ft 348 kts 290°
2026-04-30 11:58 39.82443 19.70189 19464 ft 346 kts 266°
2026-04-30 11:58 39.81729 19.67226 18993 ft 349 kts 240°
2026-04-30 11:58 39.79996 19.64998 18532 ft 358 kts 215°
2026-04-30 11:58 39.77714 19.63666 18066 ft 359 kts 209°
2026-04-30 11:59 39.75727 19.61828 17484 ft 346 kts 234°
2026-04-30 11:59 39.74604 19.59135 17009 ft 336 kts 251°
2026-04-30 11:59 39.73717 19.56371 16498 ft 336 kts 245°